When you browse on this site, cookies collect data to enhance your experience and personalize the content and advertising you see.
Visit our Privacy Policy to learn more. By continuing to use the site, you agree to this use of cookies and data.
  • In Hungary
  • List of Countries
  • For 7 days
  • Water Temperature
  • Satellite Maps
  • Weather Map
  • News
  • Weather Widgets
  • user-avatar
    Login

    Hourly Weather Lisle

    Today, 16 February, Saturday

    Time Temperature Precipitation Wind Pressure Humidity
    00:00 -10°C° 0 mm 2 mps 743 mmHg 74%
    01:00 -10°C° 0 mm 2 mps 743 mmHg 74%
    02:00 -10°C° 0 mm 2 mps 743 mmHg 75%
    03:00 -10°C° 0 mm 2 mps 742 mmHg 76%
    04:00 -10°C° 0 mm 2 mps 743 mmHg 77%
    05:00 -9°C° 0 mm 1 mps 743 mmHg 77%
    06:00 -9°C° 0 mm 1 mps 743 mmHg 78%
    07:00 -8°C° 0 mm 1 mps 743 mmHg 77%
    08:00 -7°C° 0 mm 1 mps 744 mmHg 76%
    09:00 -7°C° 0 mm 1 mps 744 mmHg 75%
    10:00 -6°C° 0 mm 2 mps 744 mmHg 72%
    11:00 -5°C° 0 mm 2 mps 743 mmHg 69%
    12:00 -3°C° 0 mm 2 mps 743 mmHg 66%
    13:00 -4°C° 0 mm 3 mps 743 mmHg 65%
    14:00 -4°C° 0 mm 3 mps 742 mmHg 64%
    15:00 -4°C° 0 mm 3 mps 742 mmHg 63%
    16:00 -4°C° 0 mm 3 mps 742 mmHg 66%
    17:00 -5°C° 0 mm 3 mps 742 mmHg 69%
    18:00 -6°C° 0 mm 3 mps 742 mmHg 71%
    19:00 -7°C° 0 mm 4 mps 741 mmHg 72%
    20:00 -7°C° 0 mm 4 mps 741 mmHg 72%
    21:00 -7°C° 0 mm 4 mps 740 mmHg 73%
    22:00 -6°C° 0 mm 3 mps 740 mmHg 72%
    23:00 -4°C° 0 mm 2 mps 740 mmHg 72%

    Tomorrow, 17 February, Sunday

    Time Temperature Precipitation Wind Pressure Humidity
    00:00 -4°C° 0 mm 2 mps 740 mmHg 72%
    01:00 -4°C° 0 mm 2 mps 740 mmHg 71%
    02:00 -5°C° 0 mm 3 mps 739 mmHg 70%
    03:00 -5°C° 0 mm 3 mps 739 mmHg 70%
    04:00 -5°C° 0.2 mm 4 mps 739 mmHg 74%
    05:00 -5°C° 0.2 mm 4 mps 739 mmHg 79%
    06:00 -7°C° 0.2 mm 4 mps 739 mmHg 84%
    07:00 -5°C° 0.1 mm 4 mps 739 mmHg 83%
    08:00 -5°C° 0.1 mm 4 mps 738 mmHg 82%
    09:00 -5°C° 0.1 mm 4 mps 738 mmHg 82%
    10:00 -5°C° 0.2 mm 4 mps 738 mmHg 82%
    11:00 -4°C° 0.2 mm 4 mps 738 mmHg 82%
    12:00 -4°C° 0.2 mm 4 mps 738 mmHg 82%
    13:00 -4°C° 0.2 mm 4 mps 738 mmHg 82%
    14:00 -4°C° 0.2 mm 4 mps 737 mmHg 83%
    15:00 -4°C° 0.2 mm 4 mps 737 mmHg 83%
    16:00 -5°C° 0.2 mm 4 mps 737 mmHg 85%
    17:00 -5°C° 0.2 mm 4 mps 737 mmHg 87%
    18:00 -5°C° 0.2 mm 4 mps 738 mmHg 89%
    19:00 -5°C° 0.3 mm 4 mps 738 mmHg 90%
    20:00 -5°C° 0.3 mm 4 mps 738 mmHg 90%
    21:00 -5°C° 0.3 mm 3 mps 739 mmHg 91%
    22:00 -5°C° 0.2 mm 3 mps 739 mmHg 91%
    23:00 -5°C° 0.2 mm 3 mps 739 mmHg 91%

    Day after tomorrow, 18 February, Monday

    Time Temperature Precipitation Wind Pressure Humidity
    00:00 -5°C° 0.2 mm 3 mps 740 mmHg 91%
    01:00 -6°C° 0.2 mm 3 mps 740 mmHg 91%
    02:00 -6°C° 0.2 mm 3 mps 741 mmHg 90%
    03:00 -6°C° 0.2 mm 3 mps 741 mmHg 90%
    04:00 -6°C° 0.1 mm 3 mps 742 mmHg 90%
    05:00 -6°C° 0.1 mm 2 mps 743 mmHg 90%
    06:00 -6°C° 0.1 mm 2 mps 743 mmHg 90%
    07:00 -5°C° 0 mm 2 mps 744 mmHg 88%
    08:00 -6°C° 0 mm 3 mps 745 mmHg 86%
    09:00 -6°C° 0 mm 3 mps 746 mmHg 85%
    10:00 -5°C° 0 mm 3 mps 747 mmHg 81%
    11:00 -4°C° 0 mm 2 mps 747 mmHg 78%
    12:00 -3°C° 0 mm 2 mps 748 mmHg 75%
    13:00 -3°C° 0.1 mm 2 mps 748 mmHg 75%
    14:00 -3°C° 0.1 mm 2 mps 749 mmHg 76%
    15:00 -3°C° 0.1 mm 2 mps 749 mmHg 76%
    16:00 -4°C° 0 mm 2 mps 749 mmHg 79%
    17:00 -2°C° 0 mm 1 mps 750 mmHg 83%
    18:00 -3°C° 0 mm 1 mps 750 mmHg 87%
    19:00 -3°C° 0 mm 1 mps 751 mmHg 87%
    20:00 -5°C° 0 mm 2 mps 751 mmHg 88%
    21:00 -6°C° 0 mm 2 mps 751 mmHg 88%
    22:00 -6°C° 0 mm 2 mps 752 mmHg 88%
    23:00 -4°C° 0 mm 1 mps 752 mmHg 88%

    19 February, Tuesday

    Time Temperature Precipitation Wind Pressure Humidity
    00:00 -6°C° 0 mm 1 mps 752 mmHg 87%
    01:00 -6°C° 0 mm 1 mps 752 mmHg 87%
    02:00 -6°C° 0 mm 1 mps 752 mmHg 86%
    03:00 -6°C° 0 mm 1 mps 752 mmHg 86%
    04:00 -6°C° 0 mm 1 mps 753 mmHg 87%
    05:00 -7°C° 0 mm 1 mps 753 mmHg 88%
    06:00 -7°C° 0 mm 1 mps 753 mmHg 89%
    07:00 -6°C° 0 mm 1 mps 754 mmHg 85%
    08:00 -6°C° 0 mm 1 mps 754 mmHg 82%
    09:00 -4°C° 0 mm 1 mps 755 mmHg 79%
    10:00 -4°C° 0 mm 1 mps 755 mmHg 75%
    11:00 -3°C° 0 mm 1 mps 755 mmHg 72%
    12:00 -2°C° 0 mm 1 mps 754 mmHg 69%
    13:00 -4°C° 0 mm 2 mps 754 mmHg 69%
    14:00 -4°C° 0 mm 2 mps 753 mmHg 70%
    15:00 -5°C° 0 mm 3 mps 752 mmHg 70%
    16:00 -5°C° 0 mm 3 mps 752 mmHg 73%
    17:00 -6°C° 0 mm 3 mps 752 mmHg 75%
    18:00 -6°C° 0 mm 3 mps 752 mmHg 78%
    19:00 -6°C° 0 mm 3 mps 752 mmHg 78%
    20:00 -6°C° 0 mm 3 mps 752 mmHg 78%
    21:00 -5°C° 0 mm 2 mps 752 mmHg 78%
    22:00 -6°C° 0 mm 3 mps 751 mmHg 79%
    23:00 -6°C° 0 mm 3 mps 750 mmHg 81%

    20 February, Wednesday

    Time Temperature Precipitation Wind Pressure Humidity
    00:00 -7°C° 0 mm 4 mps 749 mmHg 82%
    01:00 -7°C° 0.7 mm 4 mps 748 mmHg 86%
    02:00 -7°C° 0.7 mm 4 mps 748 mmHg 90%
    03:00 -7°C° 0.7 mm 4 mps 747 mmHg 94%
    04:00 -7°C° 0.8 mm 5 mps 746 mmHg 93%
    05:00 -7°C° 0.8 mm 5 mps 745 mmHg 92%
    06:00 -7°C° 0.8 mm 5 mps 744 mmHg 91%
    07:00 -6°C° 0.7 mm 5 mps 744 mmHg 92%
    08:00 -6°C° 0.7 mm 5 mps 744 mmHg 92%
    09:00 -5°C° 0.7 mm 4 mps 743 mmHg 92%
    10:00 -5°C° 0.4 mm 4 mps 743 mmHg 92%
    11:00 -5°C° 0.4 mm 4 mps 742 mmHg 92%
    12:00 -4°C° 0.4 mm 4 mps 741 mmHg 92%
    13:00 -4°C° 0 mm 3 mps 741 mmHg 93%
    14:00 -4°C° 0 mm 3 mps 740 mmHg 93%
    15:00 -2°C° 0 mm 2 mps 739 mmHg 93%
    16:00 -3°C° 0 mm 2 mps 739 mmHg 94%
    17:00 -3°C° 0 mm 2 mps 739 mmHg 95%
    18:00 -3°C° 0 mm 2 mps 739 mmHg 96%
    19:00 -1°C° 0 mm 1 mps 739 mmHg 96%
    20:00 -1°C° 0 mm 1 mps 740 mmHg 97%
    21:00 -2°C° 0 mm 0 mps 740 mmHg 97%
    22:00 -1°C° 0 mm 1 mps 740 mmHg 97%
    23:00 -1°C° 0 mm 1 mps 740 mmHg 97%

    21 February, Thursday

    Time Temperature Precipitation Wind Pressure Humidity
    00:00 -1°C° 0 mm 1 mps 740 mmHg 97%
    01:00 -1°C° 0 mm 1 mps 740 mmHg 97%
    02:00 -1°C° 0 mm 1 mps 741 mmHg 96%
    03:00 -1°C° 0 mm 1 mps 741 mmHg 96%
    04:00 -2°C° 0 mm 1 mps 742 mmHg 96%
    05:00 -4°C° 0 mm 2 mps 742 mmHg 96%
    06:00 -5°C° 0 mm 2 mps 743 mmHg 96%
    07:00 -4°C° 0 mm 2 mps 743 mmHg 95%
    08:00 -4°C° 0 mm 2 mps 744 mmHg 95%
    09:00 -1°C° 0 mm 1 mps 745 mmHg 94%
    10:00 -1°C° 0 mm 1 mps 745 mmHg 95%
    11:00 0°C° 0 mm 1 mps 746 mmHg 97%
    12:00 0°C° 0 mm 1 mps 746 mmHg 98%
    13:00 +1°C° 0 mm 1 mps 746 mmHg 96%
    14:00 +1°C° 0 mm 1 mps 746 mmHg 93%
    15:00 +1°C° 0 mm 1 mps 746 mmHg 91%
    16:00 +1°C° 0 mm 1 mps 746 mmHg 92%
    17:00 0°C° 0 mm 1 mps 746 mmHg 93%
    18:00 0°C° 0 mm 1 mps 747 mmHg 94%
    19:00 -1°C° 0 mm 1 mps 747 mmHg 94%
    20:00 -1°C° 0 mm 1 mps 747 mmHg 95%
    21:00 -1°C° 0 mm 1 mps 747 mmHg 95%
    22:00 -4°C° 0 mm 2 mps 747 mmHg 95%
    23:00 -4°C° 0 mm 2 mps 747 mmHg 94%
    Show more